Location: Kernascl�den
(48.0062°N, 3.3198°W)
Time: 23:49:05
(UTC+00:00)

Cosmos 2098 Rocket - Pass Details

Date: 18 May 2021
Orbit: 365 x 1178 km, 82.9° (Epoch: 21 June)

Event Time Altitude Azimuth Distance (km) Brightness Sun altitude
Rises 03:43:11 0° 132° (SE) 3,919 7.3 -7.3°
Reaches altitude 10° 03:46:40 10° 116° (ESE) 3,041 6.9 -6.8°
Maximum altitude 03:51:15 18° 76° (ENE) 2,525 7.2 -6.3°
Drops below altitude 10° 03:55:54 10° 37° (NE) 3,104 8.2 -5.6°
Sets 03:59:29 0° 21° (NNE) 4,032 8.3 -5.2°
